Simultaneous Nadir Overpasses (SNOs) Predictions

Prediction of SNOs between GOES-16 and TERRA Satellite Orbit:

Table of predicted SNOs for the next 14.0 days since TLE Epoch: 7/6/2024
Index Date Time (GOES-16) GOES-16 Lat,Lon TERRA Lat,Lon Distance(km) Time Diff (sec)
1 07/07/2024 14:32:31 0.02, -75.20 -0.74, -71.46 425.24 80
2 07/08/2024 02:49:52 -0.02, -75.21 -0.26, -76.33 128.25 80
3 07/10/2024 02:35:03 -0.01, -75.22 0.64, -72.12 352.73 80
4 07/10/2024 14:52:17 0.01, -75.23 0.39, -76.96 196.63 80
5 07/12/2024 14:37:28 0.01, -75.26 -0.53, -72.75 285.59 80
6 07/13/2024 02:54:49 -0.00, -75.26 -0.52, -77.61 267.26 80
7 07/15/2024 02:39:59 -0.01, -75.29 0.38, -73.39 215.82 80
8 07/15/2024 14:57:13 0.01, -75.30 0.64, -78.23 333.10 80
9 07/17/2024 14:42:23 0.02, -75.33 -0.28, -74.01 150.44 80
10 07/18/2024 02:59:44 -0.02, -75.34 -0.75, -78.88 402.10 80
11 07/20/2024 02:42:13 -0.02, -75.37 0.14, -74.66 81.54 80
